Altus, OK

9:03 PM CDT on June 28, 2017 (GMT -0500)
Altus Municipal

Weather History for KAXS - December, 2013

Change the Weather History Date:

Saturday, December 7, 2013

  Actual Average (KLTS) Record (KLTS)
Temperature  
Mean Temperature 12 °F -  
Max Temperature 20 °F 53 °F 69 °F (2008)
Min Temperature 5 °F 30 °F 4 °F (2013)
Degree Days  
Heating Degree Days 52    
Moisture  
Dew Point 4 °F    
Average Humidity 62    
Maximum Humidity 74    
Minimum Humidity 53    
Precipitation  
Precipitation 0.00 in - - ()
Sea Level Pressure  
Sea Level Pressure 30.48 in    
Wind  
Wind Speed 8 mph (NE)    
Max Wind Speed 15 mph    
Max Gust Speed 16 mph    
Visibility 10 miles    
Events      
Averages and records for this station are not official NWS values.
T = Trace of Precipitation, MM = Missing Value Source: NWS Daily Summary

Daily Weather History Graph

Daily Weather History Graph

Search for Another Location

Airport or City:

Trip Planner

Search our weather history database for the weather conditions in past years. The results will help you decide how hot, cold, wet, or windy it might be!

Date:

Astronomy

Dec. 07, 2013 Rise Set
Actual Time 7:31 AM CST 5:26 PM CST
Civil Twilight 7:03 AM CST 5:54 PM CST
Nautical Twilight 6:32 AM CST 6:25 PM CST
Astronomical Twilight 6:01 AM CST 6:56 PM CST
Moon 11:26 AM CST (12/7) 11:00 PM CST (12/7)
Length of Visible Light 10h 50m
Length of Day
9h 54m
Waxing Crescent, 29% of the Moon is Illuminated
Dec 7
Waxing Crescent
Dec 9
First Quarter
Dec 17
Full
Dec 25
Last Quarter
Jan 1
New

Hourly Weather History & Observations

Time (CST) Temp. Windchill Dew Point Humidity Pressure Visibility Wind Dir Wind Speed Gust Speed Precip Events Conditions
12:00 AM 13.1 °F 1.8 °F 0.7 °F 58% 30.58 in 10.0 mi NNE 8.1 mph - N/A   Clear
12:20 AM 12.4 °F 0.9 °F 0.7 °F 60% 30.59 in 10.0 mi North 8.1 mph - N/A   Clear
12:35 AM 13.5 °F 2.2 °F 1.4 °F 59% 30.59 in 10.0 mi NNE 8.1 mph - N/A   Clear
12:55 AM 15.3 °F 2.0 °F 0.7 °F 53% 30.58 in 10.0 mi NNE 11.5 mph - N/A   Clear
1:15 AM 14.2 °F 3.1 °F 1.0 °F 56% 30.58 in 10.0 mi NNE 8.1 mph - N/A   Clear
1:35 AM 14.0 °F 2.0 °F 1.0 °F 56% 30.59 in 10.0 mi NNE 9.2 mph - N/A   Clear
1:55 AM 14.0 °F 0.5 °F 0.9 °F 56% 30.58 in 10.0 mi NNE 11.5 mph 16.1 mph N/A   Clear
2:15 AM 13.8 °F 1.0 °F 0.7 °F 56% 30.58 in 10.0 mi NNE 10.4 mph - N/A   Clear
2:35 AM 13.6 °F -1.3 °F 0.5 °F 56% 30.57 in 10.0 mi NNE 13.8 mph - N/A   Clear
3:00 AM 13.5 °F -0.9 °F 0.3 °F 56% 30.57 in 10.0 mi NNE 12.7 mph - N/A   Clear
3:20 AM 13.1 °F -1.4 °F 0.1 °F 56% 30.56 in 10.0 mi NNE 12.7 mph - N/A   Clear
3:40 AM 13.1 °F -2.6 °F 0.5 °F 57% 30.56 in 10.0 mi NNE 15.0 mph - N/A   Clear
3:55 AM 13.1 °F -2.6 °F 0.3 °F 57% 30.56 in 10.0 mi NNE 15.0 mph - N/A   Clear
4:15 AM 12.7 °F -1.1 °F -0.4 °F 56% 30.56 in 10.0 mi NE 11.5 mph - N/A   Clear
4:35 AM 12.2 °F 0.7 °F -0.6 °F 57% 30.57 in 10.0 mi NNE 8.1 mph - N/A   Clear
4:55 AM 11.8 °F -0.7 °F -0.8 °F 57% 30.57 in 10.0 mi NNE 9.2 mph - N/A   Clear
5:20 AM 11.3 °F 0.7 °F -0.9 °F 58% 30.57 in 10.0 mi NNE 6.9 mph - N/A   Clear
5:35 AM 10.8 °F -2.8 °F -1.3 °F 58% 30.57 in 10.0 mi NNE 10.4 mph - N/A   Clear
5:55 AM 8.4 °F -2.8 °F -1.3 °F 65% 30.58 in 10.0 mi North 6.9 mph - N/A   Clear
6:15 AM 7.5 °F -5.0 °F -1.3 °F 67% 30.58 in 10.0 mi North 8.1 mph - N/A   Clear
6:35 AM 6.8 °F -3.5 °F -1.3 °F 69% 30.59 in 10.0 mi North 5.8 mph - N/A   Clear
7:00 AM 6.8 °F -3.5 °F -0.9 °F 71% 30.60 in 10.0 mi North 5.8 mph - N/A   Clear
7:15 AM 7.0 °F 0.1 °F -1.3 °F 69% 30.60 in 10.0 mi North 3.5 mph - N/A   Clear
7:40 AM 5.9 °F - -0.9 °F 73% 30.62 in 10.0 mi Calm Calm - N/A   Clear
7:55 AM 5.4 °F - -1.3 °F 74% 30.62 in 10.0 mi Calm Calm - N/A   Clear
8:20 AM 6.6 °F -2.2 °F -0.6 °F 72% 30.62 in 10.0 mi North 4.6 mph - N/A   Clear
8:35 AM 6.4 °F -3.9 °F -0.6 °F 73% 30.62 in 10.0 mi North 5.8 mph - N/A   Clear
8:55 AM 8.6 °F -1.3 °F 1.0 °F 71% 30.62 in 10.0 mi North 5.8 mph - N/A   Clear
9:15 AM 9.5 °F -2.6 °F 1.9 °F 71% 30.62 in 10.0 mi North 8.1 mph - N/A   Clear
9:35 AM 11.5 °F -1.9 °F 3.0 °F 69% 30.61 in 10.0 mi NNE 10.4 mph - N/A   Clear
9:55 AM 12.7 °F -1.8 °F 2.8 °F 65% 30.58 in 10.0 mi NE 12.7 mph - N/A   Clear
10:15 AM 13.1 °F -2.0 °F 2.1 °F 62% 30.58 in 10.0 mi NNE 13.8 mph - N/A   Clear
10:35 AM 14.0 °F 0.5 °F 3.2 °F 62% 30.56 in 10.0 mi NE 11.5 mph - N/A   Clear
10:55 AM 14.7 °F 2.9 °F 3.4 °F 61% 30.56 in 10.0 mi NNE 9.2 mph - N/A   Clear
11:15 AM 15.3 °F 2.0 °F 3.6 °F 60% 30.55 in 10.0 mi NE 11.5 mph - N/A   Clear
11:35 AM 16.2 °F 3.2 °F 3.7 °F 58% 30.55 in 10.0 mi NNE 11.5 mph - N/A   Clear
11:55 AM 16.9 °F 4.8 °F 3.7 °F 56% 30.55 in 10.0 mi NE 10.4 mph - N/A   Clear
12:15 PM 16.9 °F 6.4 °F 4.3 °F 58% 30.53 in 10.0 mi NE 8.1 mph - N/A   Clear
12:35 PM 17.2 °F 6.0 °F 4.5 °F 57% 30.51 in 10.0 mi NE 9.2 mph - N/A   Clear
1:00 PM 17.6 °F 12.3 °F 5.0 °F 58% 30.50 in 10.0 mi NE 3.5 mph - N/A   Clear
1:15 PM 17.6 °F 9.3 °F 5.0 °F 58% 30.49 in 10.0 mi East 5.8 mph - N/A   Clear
1:35 PM 17.6 °F 12.3 °F 5.7 °F 60% 30.48 in 10.0 mi ENE 3.5 mph - N/A   Scattered Clouds
1:55 PM 17.8 °F 10.9 °F 5.5 °F 59% 30.46 in 10.0 mi NE 4.6 mph - N/A   Clear
2:20 PM 17.6 °F 9.3 °F 5.4 °F 59% 30.43 in 10.0 mi NNE 5.8 mph - N/A   Mostly Cloudy
2:40 PM 18.0 °F 9.8 °F 5.4 °F 58% 30.43 in 10.0 mi NNE 5.8 mph - N/A   Scattered Clouds
3:00 PM 18.1 °F 7.1 °F 5.7 °F 58% 30.41 in 10.0 mi NNE 9.2 mph - N/A   Mostly Cloudy
3:20 PM 18.5 °F 8.4 °F 5.2 °F 56% 30.40 in 10.0 mi NNE 8.1 mph - N/A   Mostly Cloudy
3:35 PM 18.5 °F 8.4 °F 5.9 °F 58% 30.39 in 10.0 mi NNE 8.1 mph - N/A   Scattered Clouds
3:55 PM 18.9 °F 9.8 °F 5.9 °F 57% 30.39 in 10.0 mi NNE 6.9 mph - N/A   Scattered Clouds
4:15 PM 19.0 °F 9.0 °F 5.7 °F 56% 30.38 in 10.0 mi NNE 8.1 mph - N/A   Scattered Clouds
4:35 PM 19.2 °F 10.2 °F 6.6 °F 58% 30.38 in 10.0 mi NNE 6.9 mph - N/A   Mostly Cloudy
4:55 PM 19.4 °F 11.5 °F 6.8 °F 58% 30.37 in 10.0 mi ENE 5.8 mph - N/A   Overcast
5:15 PM 19.4 °F 10.4 °F 7.3 °F 60% 30.37 in 10.0 mi NE 6.9 mph - N/A   Overcast
5:35 PM 19.4 °F 11.5 °F 7.2 °F 59% 30.37 in 10.0 mi NE 5.8 mph - N/A   Overcast
6:00 PM 19.4 °F 9.5 °F 7.7 °F 60% 30.35 in 10.0 mi NNE 8.1 mph - N/A   Overcast
6:15 PM 19.4 °F 9.5 °F 8.2 °F 62% 30.34 in 10.0 mi NE 8.1 mph - N/A   Overcast
6:35 PM 19.4 °F 9.5 °F 8.6 °F 63% 30.33 in 10.0 mi NNE 8.1 mph - N/A   Overcast
6:55 PM 19.8 °F 9.9 °F 9.0 °F 63% 30.33 in 10.0 mi NE 8.1 mph - N/A   Overcast
7:15 PM 19.8 °F 13.2 °F 9.0 °F 63% 30.33 in 10.0 mi NE 4.6 mph - N/A   Overcast
7:35 PM 19.8 °F 11.9 °F 8.8 °F 62% 30.33 in 10.0 mi ENE 5.8 mph - N/A   Overcast
7:55 PM 19.8 °F 11.9 °F 9.1 °F 63% 30.32 in 10.0 mi ENE 5.8 mph - N/A   Overcast
8:15 PM 19.6 °F 11.7 °F 9.3 °F 64% 30.31 in 10.0 mi ENE 5.8 mph - N/A   Overcast
8:40 PM 19.8 °F 14.7 °F 9.5 °F 64% 30.31 in 10.0 mi East 3.5 mph - N/A   Overcast
8:55 PM 19.9 °F 14.9 °F 10.0 °F 65% 30.31 in 10.0 mi ENE 3.5 mph - N/A   Overcast
9:15 PM 19.9 °F 12.1 °F 10.2 °F 66% 30.31 in 10.0 mi ENE 5.8 mph - N/A   Overcast
9:40 PM 20.1 °F 15.2 °F 11.1 °F 68% 30.29 in 10.0 mi East 3.5 mph - N/A   Overcast
9:55 PM 20.3 °F 12.5 °F 11.1 °F 68% 30.28 in 10.0 mi East 5.8 mph - N/A   Overcast
10:15 PM 20.3 °F - 11.7 °F 69% 30.29 in 10.0 mi Calm Calm - N/A   Overcast
10:35 PM 20.3 °F 12.5 °F 11.3 °F 68% 30.28 in 10.0 mi SE 5.8 mph - N/A   Overcast
10:55 PM 20.3 °F 15.4 °F 11.3 °F 68% 30.28 in 10.0 mi SE 3.5 mph - N/A   Overcast
11:15 PM 20.3 °F 13.8 °F 12.0 °F 70% 30.26 in 10.0 mi SSE 4.6 mph - N/A   Overcast
11:35 PM 20.1 °F 12.3 °F 11.3 °F 69% 30.26 in 10.0 mi South 5.8 mph - N/A   Overcast